Location: Gälforsberget
(66.6500°N, 22.4167°E)
Time: 18:08:20
(UTC+00:00)

Cosmos 2298 Rocket - Pass Details

Date: 11 April 2026
Orbit: 772 x 782 km, 74.0° (Epoch: 19 May)

Event Time Altitude Azimuth Distance (km) Brightness Sun altitude
Exits shadow 22:03:54 21° 192° (SSW) 1,710 5.2 -14.6°
Maximum altitude 22:07:22 57° 121° (ESE) 919 4.2 -14.6°
Drops below altitude 10° 22:12:35 10° 44° (NE) 2,349 7.1 -14.7°
Sets 22:15:01 0° 40° (NE) 3,281 8.0 -14.7°
